Location: St. Louis
(38.6270°N, 90.1994°W)
Time: 10:38:59
(UTC-06:00)

A-11 Canister half - Pass Details

Date: 07 December 2021
Orbit: 1524 x 1684 km, 47.3° (Epoch: 25 January)

Event Time Altitude Azimuth Distance (km) Brightness Sun altitude
Rises 04:02:29 0° 286° (WNW) 4,938 - -35.0°
Reaches altitude 10° 04:05:49 10° 291° (WNW) 3,945 - -34.3°
Exits shadow 04:13:42 48° 333° (NNW) 2,084 9.4 -32.8°
Maximum altitude 04:15:42 54° 8° (N) 1,957 9.4 -32.4°
Drops below altitude 10° 04:25:20 10° 84° (E) 3,851 12.0 -30.5°
Sets 04:28:33 0° 89° (E) 4,814 12.8 -29.9°
